Location: *
(40.7765°S, 106.5327°E)
Time: 17:00:24
(UTC+00:00)

DMSP B5D2-2 - Pass Details

Date: 26 May 2022
Orbit: 789 x 806 km, 98.3° (Epoch: 05 July)

Event Time Altitude Azimuth Distance (km) Brightness Sun altitude
Rises 10:22:13 0° 15° (NNE) 3,296 7.4 -8.5°
Reaches altitude 10° 10:24:32 10° 15° (NNE) 2,371 6.6 -8.9°
Maximum altitude 10:29:47 89° 101° (ESE) 810 4.1 -9.8°
Drops below altitude 10° 10:35:06 10° 193° (SSW) 2,392 6.5 -10.8°
Sets 10:37:27 0° 192° (SSW) 3,328 7.2 -11.2°
